Theta_e
323 324 324 325 323 318 322 322 318 319 319 317 317 318 319 320 323 322 319 323 324 324 322 328 329 330 332 333 333 333 333 333 333 333 333 332 331 331 330 331 328 331 332 332 332 333 333 334 334
322 323 324 321 322 324 322 318 318 318 317 316 316 318 317 320 316 315 316 322 323 324 322 323 324 326 330 331 331 332 332 332 332 331 330 328 328 327 326 325 325 326 328 330 331 330 328 327 329
321 321 321 322 321 321 319 317 316 317 316 317 318 317 317 318 314 315 316 320 321 321 319 320 322 327 328 328 329 329 329 329 330 327 324 321 319 318 318 317 316 318 320 325 325 323 323 323 323
321 319 314 317 318 316 317 315 315 315 317 316 315 317 314 314 315 315 316 319 319 318 316 317 321 325 323 322 324 324 324 326 322 319 316 313 309 308 308 311 311 311 314 316 315 314 313 313 313
319 315 321 318 317 317 316 315 314 316 315 315 316 317 316 312 316 315 316 317 317 316 314 316 319 320 319 319 318 317 318 319 314 313 310 308 308 309 309 310 310 310 311 311 311 310 310 309 308
315 313 317 319 320 318 316 314 314 315 315 314 316 314 314 311 313 313 316 315 315 314 312 313 315 315 316 315 313 312 312 311 310 308 306 304 302 303 300 304 305 305 308 309 309 309 308 308 308
318 319 321 321 319 318 317 314 314 314 313 314 313 315 311 308 311 311 314 314 313 312 310 309 310 311 312 309 305 304 303 302 300 299 298 298 296 296 296 297 297 297 301 304 305 305 306 307 307
314 314 318 317 318 319 316 316 316 314 315 313 313 314 314 309 309 309 310 310 310 310 308 305 305 305 304 303 302 300 298 298 297 296 297 297 297 296 296 296 298 301 305 304 305 304 299 297 297
317 314 315 318 320 319 315 316 314 312 315 315 314 314 312 312 309 307 306 306 307 307 305 304 303 300 299 300 299 297 296 296 295 296 298 297 296 297 296 297 300 298 298 297 297 295 295 295 295
317 315 317 317 317 317 315 314 313 315 313 313 314 308 310 309 307 305 303 303 303 303 303 302 302 302 301 298 296 296 296 297 298 298 298 297 296 296 296 295 295 295 295 295 294 294 294 294 294
316 316 317 318 317 314 316 315 313 313 313 310 312 309 307 305 305 304 303 303 303 302 302 302 301 301 301 298 296 298 298 298 297 297 296 297 296 296 296 295 295 295 294 294 293 293 293 293 293
318 316 316 317 316 316 315 313 315 311 313 313 310 309 307 305 304 304 303 303 303 302 302 301 301 300 300 298 298 298 298 297 297 296 296 297 296 295 295 295 295 295 294 294 294 293 293 293 292
317 316 316 315 314 314 314 313 313 312 310 309 310 308 307 306 305 305 305 304 304 303 302 301 301 300 300 297 298 298 298 298 297 296 295 296 295 295 295 295 295 294 293 293 293 293 292 292 292
316 316 314 314 314 313 314 313 314 312 311 310 310 308 306 307 305 304 304 304 304 304 303 302 301 300 300 298 298 298 298 297 297 296 294 295 294 294 295 295 294 293 293 292 291 291 291 290 290
315 316 312 313 313 314 313 314 313 313 313 311 310 309 307 306 307 305 306 305 306 305 304 303 301 300 299 299 298 298 298 297 297 296 295 294 294 294 294 293 293 292 292 291 291 291 291 290 290
315 314 315 314 313 314 313 315 313 311 310 311 309 307 307 307 307 308 307 307 307 306 305 303 301 300 299 299 298 298 297 297 296 295 295 293 293 293 293 293 293 292 291 291 290 290 290 289 289
312 313 314 315 313 313 313 314 313 311 309 311 308 309 308 307 306 308 309 309 308 307 306 303 301 300 299 298 298 297 297 296 295 295 294 293 293 293 292 292 292 291 290 290 290 289 288 288 288
312 313 313 313 314 313 312 313 313 311 311 310 308 306 307 309 309 309 309 308 308 307 306 303 300 300 299 298 297 297 297 296 295 295 294 293 293 292 292 292 291 290 290 289 289 288 288 288 287
311 311 311 313 313 315 314 315 314 313 310 309 311 311 309 310 310 309 310 308 307 306 303 301 299 299 298 297 297 296 296 295 294 294 293 293 292 292 291 291 290 289 289 289 288 288 288 288 287
313 313 313 313 312 312 312 313 313 311 313 313 312 310 310 310 307 306 307 306 305 304 302 300 299 299 298 297 296 295 295 295 294 293 293 292 291 291 290 290 289 289 289 288 288 288 287 287 287
313 312 313 312 312 310 311 312 312 311 312 312 312 312 311 311 306 305 303 304 303 301 300 299 299 299 298 297 296 295 294 294 293 293 292 292 291 290 290 289 289 288 288 288 287 287 286 286 286
314 311 312 313 313 314 311 314 311 312 311 311 312 311 311 308 305 304 303 303 302 301 300 299 299 298 297 296 295 294 294 293 293 292 292 291 291 290 289 289 288 288 288 288 287 286 286 286 285
314 312 311 313 313 313 314 315 314 311 310 310 310 311 310 307 303 303 303 304 303 301 299 299 299 297 296 296 295 294 293 293 293 292 292 291 291 290 289 288 288 287 287 287 286 286 285 285 284
310 312 311 310 309 314 313 314 312 310 311 310 311 310 309 308 304 303 303 304 301 299 299 298 297 296 296 296 295 295 293 292 292 292 291 291 290 289 289 288 287 287 287 286 286 285 284 284 284
310 311 313 312 312 315 310 312 314 311 309 309 310 310 309 306 304 301 300 300 299 298 298 297 296 295 296 296 295 294 293 292 292 292 291 290 290 289 288 288 287 286 286 285 284 284 284 283 282
309 312 313 311 312 313 308 311 311 310 311 308 308 308 306 305 304 302 302 300 299 298 297 297 296 295 295 295 294 294 293 292 292 292 291 290 290 290 289 288 287 286 285 284 284 283 282 282 281
310 312 311 314 298 309 313 310 309 309 308 307 306 305 305 304 303 302 299 299 298 298 297 297 296 296 295 295 294 294 293 292 292 292 291 290 290 290 289 287 286 285 284 283 283 282 281 281 280
309 308 312 312 313 311 313 311 312 310 310 309 307 304 303 303 303 302 300 299 298 298 298 297 297 296 295 294 294 293 293 293 292 291 291 290 290 289 288 286 285 284 283 282 282 281 281 280 279
307 309 309 310 312 315 314 313 309 308 307 309 307 304 302 303 301 301 301 300 299 298 298 298 297 296 295 295 294 293 293 292 292 291 291 290 290 288 287 286 285 283 282 282 281 280 279 279 278
308 310 311 313 313 310 312 313 312 310 306 308 308 305 304 303 302 301 300 298 297 298 297 297 296 295 295 294 293 293 292 291 291 291 290 290 289 287 286 285 283 282 282 281 280 279 278 278 277
Wind_Speed
3 3 7 3 4 4 4 5 3 3 3 2 2 4 7 3 2 4 13 15 15 12 12 14 13 14 14 11 9 7 8 7 6 5 6 6 7 6 7 9 7 8 7 5 5 7 7 10 6
1 4 1 2 3 1 5 3 4 2 3 4 6 3 6 1 4 7 13 15 15 14 12 14 13 14 13 12 13 11 9 9 9 8 5 5 7 8 9 10 10 10 9 9 8 6 6 6 5
2 3 3 3 2 4 3 5 7 3 4 3 3 2 2 5 1 20 11 22 20 16 13 15 14 14 13 12 12 11 10 8 11 10 7 7 8 9 10 9 9 9 10 9 8 7 8 7 6
4 5 4 3 7 7 4 5 6 7 2 2 5 3 2 1 14 16 27 24 21 17 15 15 14 14 13 12 12 11 9 12 10 9 9 8 6 6 7 8 9 9 10 9 9 9 9 9 8
2 3 1 2 6 5 2 8 7 5 5 4 4 3 2 1 13 22 26 23 22 18 16 17 16 15 15 14 13 13 13 13 12 11 10 9 10 10 11 11 12 12 12 12 12 11 11 10 9
3 3 2 3 4 3 3 9 9 6 4 4 2 3 4 13 24 25 26 25 20 19 18 19 18 17 15 15 14 13 12 11 11 11 10 11 11 11 10 11 11 12 12 12 12 12 13 13 13
3 3 4 5 6 4 4 4 7 8 7 7 6 5 0 9 21 24 25 22 21 19 18 19 19 19 17 15 13 12 11 10 10 10 11 10 10 10 9 9 9 9 10 12 13 14 14 14 14
3 3 4 4 3 4 5 3 1 5 7 1 5 6 5 10 25 24 22 22 22 20 19 19 19 17 16 15 15 13 12 12 13 13 12 12 10 10 9 9 10 12 11 13 13 13 13 12 12
2 2 3 5 3 2 5 4 2 4 2 2 5 3 3 23 30 27 25 23 23 22 22 22 20 19 17 16 16 15 15 15 15 14 12 11 8 8 8 11 10 11 10 12 12 13 12 12 11
3 3 6 4 3 2 3 5 7 3 4 4 3 2 17 34 35 27 27 27 30 29 27 25 23 22 19 19 18 17 16 15 13 12 11 11 9 8 7 7 7 8 10 10 11 11 12 12 12
5 6 4 4 2 4 2 2 6 7 7 8 11 9 15 19 25 25 27 31 38 34 29 29 26 24 22 21 20 18 17 15 14 13 12 11 9 7 6 5 5 6 9 10 10 11 12 13 13
5 9 8 6 3 1 3 5 5 9 11 7 12 12 16 17 19 27 28 34 36 36 34 32 29 27 24 21 21 19 18 17 15 14 13 12 10 8 6 4 3 5 7 9 10 11 12 13 14
6 5 7 7 7 6 2 10 7 11 9 10 7 9 17 16 23 27 30 31 36 38 38 36 32 30 28 26 23 22 21 19 17 15 14 13 11 9 6 3 2 5 7 8 9 11 12 13 14
3 4 7 7 9 6 7 5 4 9 8 15 10 12 13 18 25 22 27 32 38 39 41 39 37 34 31 30 27 25 23 21 18 17 15 14 12 9 7 3 1 3 6 8 10 11 12 13 15
3 7 9 9 9 8 6 10 14 23 5 10 12 12 11 17 21 30 38 34 40 40 41 42 39 35 34 32 28 27 24 23 21 19 17 15 13 10 8 5 2 1 4 6 8 9 10 13 15
3 1 4 3 6 4 9 16 13 14 9 16 13 11 10 15 22 32 32 38 40 40 43 43 42 39 36 33 30 28 25 24 23 21 20 18 16 14 11 9 6 3 2 4 7 9 12 14 16
4 6 8 10 10 6 6 11 11 8 9 13 11 14 12 12 16 27 36 42 42 45 44 47 46 42 37 32 31 29 28 27 25 24 23 21 19 16 13 10 8 4 2 2 5 7 12 15 19
8 7 7 10 3 4 7 16 17 9 6 10 10 10 12 15 22 26 39 40 42 45 47 48 48 43 38 34 32 30 29 28 27 27 26 24 22 19 16 13 11 8 5 3 3 6 9 13 17
5 7 7 16 9 7 15 18 20 18 11 13 18 18 14 20 21 23 36 41 40 43 44 47 47 44 41 39 38 35 35 32 30 29 27 26 23 20 18 16 13 10 7 3 3 6 10 13 17
11 15 14 12 13 10 12 19 18 10 15 16 16 17 19 19 8 10 24 33 40 45 45 45 47 46 45 44 42 32 37 35 33 30 28 28 25 23 20 17 14 12 9 6 4 5 6 6 7
18 12 20 18 11 6 9 12 12 11 15 13 17 19 18 20 12 10 12 29 34 37 43 48 49 49 48 45 42 31 29 28 32 33 32 32 29 26 23 19 16 14 11 8 5 3 5 4 5
22 10 11 8 3 14 5 20 9 7 14 13 19 18 21 15 10 9 12 19 32 38 42 46 48 49 47 45 41 39 34 30 36 37 40 36 31 28 25 21 18 16 13 10 7 7 7 7 7
23 6 9 2 5 5 5 8 4 9 9 11 16 18 18 14 12 11 16 28 34 36 41 45 47 45 43 47 47 45 34 31 30 34 37 37 33 30 27 23 21 18 14 11 10 9 9 8 8
2 1 0 2 2 13 9 10 4 7 11 7 15 16 16 15 10 9 15 21 25 30 35 39 43 44 45 47 48 48 40 35 33 35 37 38 35 32 29 25 22 18 16 13 11 10 9 8 9
3 5 4 4 0 12 12 11 23 7 6 11 14 16 17 6 8 9 12 13 20 30 35 38 41 39 45 48 48 48 44 42 42 40 40 41 39 36 33 29 25 22 18 14 12 11 11 11 13
10 13 6 8 8 18 5 9 6 12 13 11 15 14 7 9 9 11 14 15 22 29 34 35 35 35 43 46 45 45 46 45 43 45 42 43 44 41 35 31 26 22 20 17 14 14 14 13 15
4 6 13 2 2 3 11 14 9 4 10 9 15 7 8 10 9 10 8 13 21 27 34 39 38 37 38 43 42 45 46 44 43 43 43 43 43 39 33 30 27 24 21 18 16 15 14 15 16
5 0 2 2 4 8 16 13 17 15 18 17 8 11 10 7 8 8 9 12 21 26 31 35 38 41 40 41 42 42 46 47 43 43 44 44 41 36 33 31 29 26 21 18 17 16 15 16 17
1 4 5 2 4 15 19 17 4 10 9 9 9 11 10 9 10 9 10 13 20 23 32 38 39 40 41 44 45 43 46 47 47 44 44 45 40 37 35 33 30 25 22 19 17 16 15 16 17
6 11 14 10 12 5 9 15 28 16 8 7 6 7 7 7 9 8 9 8 17 25 28 35 34 35 45 41 42 45 43 44 43 44 43 42 40 36 34 31 29 25 22 19 17 15 15 15 16
Wind_Direction
102 60 338 348 39 67 271 262 113 85 70 43 50 78 128 74 138 198 135 136 149 160 160 158 149 153 133 138 138 136 128 127 124 114 106 102 89 93 70 62 56 58 58 65 45 23 21 28 19
40 5 261 73 96 51 269 210 130 146 150 105 70 4 55 106 122 140 142 152 152 161 157 158 158 155 149 140 156 151 137 133 124 121 112 93 84 81 74 68 65 63 54 52 50 44 23 10 24
36 345 79 108 172 196 227 194 144 137 119 97 83 79 132 177 110 159 172 160 168 176 166 151 143 140 143 142 157 153 135 126 117 112 104 92 88 82 77 68 65 63 61 68 54 33 21 14 1
2 21 16 96 248 265 208 157 146 131 69 114 143 147 55 176 163 179 161 169 177 175 167 151 144 142 142 144 144 152 148 132 126 117 112 107 99 87 77 66 60 55 61 54 45 32 21 13 2
336 69 42 253 266 260 230 156 148 141 161 201 143 212 197 355 157 161 164 170 177 170 165 154 147 143 140 135 132 132 131 129 125 124 115 106 99 89 82 74 67 60 55 48 42 35 28 20 8
7 96 37 253 251 274 206 150 139 149 175 177 150 144 216 169 153 162 166 173 185 175 169 165 157 154 150 146 143 139 132 131 129 120 112 107 99 91 81 75 66 59 56 47 42 34 29 26 27
134 97 227 253 257 283 219 148 154 175 165 210 166 166 49 180 173 167 169 177 187 188 181 176 172 166 162 161 159 158 156 151 143 134 124 116 108 98 91 86 77 67 56 43 39 36 36 35 34
118 98 282 248 244 252 172 115 113 162 231 34 166 211 225 201 174 169 172 176 186 193 192 184 183 181 178 176 174 175 168 160 152 148 148 136 124 114 98 91 74 63 58 47 41 37 32 33 29
68 51 252 260 260 213 176 156 306 158 152 210 204 169 221 165 166 168 172 178 187 197 198 192 187 186 183 182 180 174 162 154 150 148 142 121 118 108 89 87 83 69 59 43 34 23 20 16 13
121 159 235 220 291 289 214 176 181 177 214 228 213 64 145 157 167 174 180 185 189 194 195 199 196 193 188 184 178 169 167 166 164 155 148 141 132 123 105 86 71 58 47 32 24 16 14 11 12
199 214 215 282 325 12 292 255 190 181 239 210 211 183 169 167 178 186 195 195 196 199 198 202 200 200 196 188 183 181 180 174 171 164 159 156 149 139 130 106 79 53 44 30 22 17 13 10 3
224 239 245 272 245 197 259 295 251 198 226 218 226 190 173 180 189 195 200 202 202 201 204 204 204 201 199 197 194 188 186 184 178 172 170 169 163 159 149 136 84 46 33 23 14 9 6 2 358
218 253 269 259 257 231 245 254 247 263 258 251 237 158 187 198 203 208 208 207 207 207 207 207 206 204 200 200 197 195 194 194 189 182 181 182 180 175 171 159 72 42 26 15 9 6 2 358 353
246 257 264 264 253 236 198 257 163 254 228 244 235 222 197 201 205 205 208 208 208 209 211 208 209 207 204 202 202 201 200 197 194 189 187 188 186 185 186 176 112 30 14 8 6 3 360 356 346
281 310 308 247 241 223 123 286 226 248 222 241 242 235 214 216 201 207 211 206 209 209 211 207 206 206 206 206 205 203 201 199 199 196 193 196 195 195 194 182 173 3 358 1 357 354 350 344 343
245 203 282 263 161 196 132 264 247 246 194 234 239 238 227 225 216 218 212 212 212 208 208 206 203 205 207 206 204 204 204 201 202 204 202 201 201 200 196 192 200 223 310 345 353 350 343 342 338
247 239 218 296 190 150 173 247 272 257 194 239 232 235 235 241 232 224 216 217 210 210 206 203 200 203 205 205 203 206 206 205 205 206 208 205 206 203 200 199 206 220 251 319 346 348 339 338 339
214 224 250 235 206 151 195 244 261 265 276 238 244 236 236 242 241 219 220 212 211 207 206 200 197 201 203 202 202 206 208 209 209 211 211 210 209 205 203 204 209 214 220 232 322 332 334 339 340
222 258 252 266 260 188 233 241 252 255 252 242 252 256 246 245 248 229 219 208 198 197 194 192 191 198 197 195 196 201 202 206 208 213 215 215 213 208 206 205 206 212 222 236 303 326 339 344 346
245 257 262 271 260 189 249 245 257 242 247 242 238 244 245 248 237 227 204 191 187 188 190 186 192 197 199 199 200 201 204 207 210 212 215 218 216 212 211 210 210 217 225 241 277 318 338 347 10
248 252 261 262 292 247 286 271 241 243 243 252 257 250 255 250 226 231 183 189 183 181 183 187 192 199 199 202 201 201 206 210 211 213 214 216 217 216 215 215 216 221 224 233 245 268 285 295 328
258 219 248 254 255 272 144 291 220 245 242 238 247 252 252 244 222 216 186 183 184 187 185 187 194 199 199 202 197 197 199 202 209 207 212 214 216 215 216 216 219 225 229 233 235 237 238 245 273
263 224 241 212 236 318 194 277 178 197 241 244 243 245 256 252 213 199 189 192 191 181 183 188 194 196 197 204 205 202 207 211 210 210 214 212 213 215 215 216 218 224 229 231 235 233 233 247 268
167 139 184 53 81 264 180 205 189 189 215 230 242 255 252 252 216 203 195 182 181 181 181 187 191 195 199 205 206 208 207 206 203 207 209 208 210 213 215 215 219 223 227 229 234 241 251 254 258
169 87 300 310 2 256 180 218 250 287 255 212 227 239 242 230 168 169 163 174 173 181 185 188 191 194 199 206 208 211 210 210 211 211 207 207 209 209 211 213 215 217 220 220 227 237 245 256 261
200 202 182 214 254 275 133 246 253 215 236 231 229 231 204 179 188 186 181 181 183 187 190 191 194 196 202 206 209 213 214 214 216 220 216 213 211 212 212 212 213 214 214 216 223 236 245 252 257
182 171 217 325 85 356 268 271 290 284 267 259 240 243 215 196 200 189 181 189 187 189 193 194 199 204 206 208 208 213 215 215 216 220 220 218 215 215 211 209 210 211 212 218 225 233 243 251 256
184 224 104 212 204 246 268 272 274 284 271 256 274 228 231 219 206 200 198 200 200 197 195 200 204 206 208 211 212 212 214 219 219 221 218 217 217 212 206 205 207 209 217 221 226 233 241 249 257
129 259 246 294 202 250 261 271 219 254 249 253 245 236 213 213 213 207 209 210 203 202 202 204 207 209 210 213 212 212 215 218 219 221 222 220 218 212 207 205 207 211 215 223 229 232 239 248 257
258 236 232 239 255 237 271 264 262 273 280 261 333 274 255 231 220 208 204 193 195 206 207 208 210 210 217 215 212 214 214 217 217 220 220 217 212 209 210 206 210 211 215 218 229 236 244 250 259